CW5775 Weather Reports


time (UTC)temp
C
wind
direction
speed
KPH
gust
KPH
rain 1hr
cm
rain 24hr
cm
rain mn
cm
humidity
%
barometer
mb
20260505035353 16 187 4.8 14.5 0.00 0.00 0.00 72 1007.4
20260505034518 16 193 6.4 0.0 0.00 0.00 0.00 72 1007.3
20260505034417 16 182 6.4 11.3 0.00 0.00 0.00 72 1007.4
20260505033418 16 175 4.8 9.7 0.00 0.00 0.00 71 1007.3
20260505033105 16 182 4.8 0.0 0.00 0.00 0.00 71 1007.2
20260505032349 16 174 4.8 9.7 0.00 0.00 0.00 71 1007.7
20260505031530 16 170 4.8 0.0 0.00 0.00 0.00 70 1007.6
20260505031348 16 177 4.8 11.3 0.00 0.00 0.00 70 1007.7
20260505030342 16 182 6.4 9.7 0.00 0.00 0.00 70 1007.7
20260505030036 16 188 4.8 0.0 0.00 0.00 0.00 70 1007.7
20260505025355 16 178 4.8 11.3 0.00 0.00 0.00 70 1007.7
20260505024507 16 181 4.8 0.0 0.00 0.00 0.00 70 1007.7
20260505024349 16 184 4.8 14.5 0.00 0.00 0.00 70 1007.7
20260505023341 16 180 6.4 9.7 0.00 0.00 0.00 69 1007.8
20260505023005 16 187 4.8 0.0 0.00 0.00 0.00 69 1007.8
20260505022335 17 188 6.4 9.7 0.00 0.00 0.00 69 1007.8
20260505021555 16 186 4.8 0.0 0.00 0.00 0.00 68 1007.7
20260505021354 17 182 4.8 8.0 0.00 0.00 0.00 67 1007.8
20260505020346 17 176 3.2 11.3 0.00 0.00 0.00 66 1007.8
20260505020056 16 180 3.2 0.0 0.00 0.00 0.00 66 1007.7
20260505015341 17 175 3.2 8.0 0.00 0.00 0.00 63 1007.8
20260505014532 17 177 3.2 0.0 0.00 0.00 0.00 62 1007.7
20260505014401 17 185 1.6 8.0 0.00 0.00 0.00 61 1007.8
20260505013351 17 187 3.2 6.4 0.00 0.00 0.00 59 1007.7
20260505013005 17 182 3.2 0.0 0.00 0.00 0.00 59 1007.7
20260505012346 17 185 3.2 6.4 0.00 0.00 0.00 58 1007.6
20260505011557 17 174 3.2 0.0 0.00 0.00 0.00 57 1007.6
20260505011346 17 187 1.6 6.4 0.00 0.00 0.00 57 1007.6
20260505010403 17 187 3.2 8.0 0.00 0.00 0.00 55 1007.3
20260505010034 17 186 3.2 0.0 0.00 0.00 0.00 55 1007.2
20260505005337 18 179 3.2 4.8 0.00 0.00 0.00 54 1007.3
20260505004503 18 178 1.6 0.0 0.00 0.00 0.00 53 1007.2
20260505004357 18 178 1.6 6.4 0.00 0.00 0.00 53 1007.3
20260505003352 18 180 3.2 4.8 0.00 0.00 0.00 52 1007.2
20260505003001 18 179 3.2 0.0 0.00 0.00 0.00 51 1007.1
20260505002350 19 182 1.6 6.4 0.00 0.00 0.00 50 1007.1
20260505001543 19 183 3.2 0.0 0.00 0.00 0.00 49 1007.0
20260505001416 19 185 1.6 8.0 0.00 0.00 0.00 49 1007.1
20260505000351 20 179 4.8 9.7 0.00 0.00 0.00 48 1006.8
20260505000016 19 191 4.8 0.0 0.00 0.00 0.00 48 1006.7
20260504235346 20 183 3.2 8.0 0.00 0.00 0.00 47 1006.7
20260504234616 20 177 4.8 0.0 0.00 0.00 0.00 47 1006.7
20260504234348 20 184 4.8 9.7 0.00 0.00 0.00 46 1006.7
20260504233343 20 183 3.2 6.4 0.00 0.00 0.00 46 1006.7
20260504233052 20 188 3.2 0.0 0.00 0.00 0.00 45 1006.7
20260504232356 21 192 4.8 9.7 0.00 0.00 0.00 44 1006.8
20260504231539 21 181 4.8 0.0 0.00 0.00 0.00 44 1006.7
20260504231336 21 193 4.8 9.7 0.00 0.00 0.00 43 1006.8
20260504230355 21 181 4.8 11.3 0.00 0.00 0.00 43 1006.7
20260504230019 21 180 4.8 0.0 0.00 0.00 0.00 42 1006.7
20260504225352 21 209 6.4 16.1 0.00 0.00 0.00 42 1006.7
20260504224606 21 201 6.4 0.0 0.00 0.00 0.00 42 1006.7
20260504224352 21 190 6.4 11.3 0.00 0.00 0.00 41 1006.7
20260504223351 22 187 6.4 16.1 0.00 0.00 0.00 42 1006.7
20260504223056 21 185 6.4 0.0 0.00 0.00 0.00 41 1006.7
20260504222346 22 220 6.4 14.5 0.00 0.00 0.00 40 1006.8
20260504221534 22 194 6.4 0.0 0.00 0.00 0.00 40 1006.7
20260504221347 22 183 4.8 17.7 0.00 0.00 0.00 40 1006.8
20260504220402 22 183 8.0 16.1 0.00 0.00 0.00 40 1006.8
20260504215407 22 179 8.0 16.1 0.00 0.00 0.00 40 1006.8
20260504214538 22 203 8.0 0.0 0.00 0.00 0.00 39 1006.8
20260504214410 22 177 9.7 19.3 0.00 0.00 0.00 39 1006.8
20260504213410 23 220 8.0 17.7 0.00 0.00 0.00 39 1006.8
20260504213058 22 211 6.4 0.0 0.00 0.00 0.00 39 1006.8
20260504212345 23 203 6.4 16.1 0.00 0.00 0.00 38 1006.8
20260504211520 23 248 8.0 0.0 0.00 0.00 0.00 39 1006.7
20260504211403 23 184 8.0 20.9 0.00 0.00 0.00 37 1006.8
20260504210353 23 177 8.0 17.7 0.00 0.00 0.00 38 1006.7
20260504210106 23 200 8.0 0.0 0.00 0.00 0.00 38 1006.7
20260504205348 23 204 8.0 17.7 0.00 0.00 0.00 38 1006.7
20260504204625 23 180 9.7 0.0 0.00 0.00 0.00 38 1006.7
20260504204346 23 217 9.7 20.9 0.00 0.00 0.00 38 1006.7
20260504203339 23 192 9.7 20.9 0.00 0.00 0.00 38 1006.8
20260504203047 23 170 6.4 0.0 0.00 0.00 0.00 37 1006.8
20260504202348 23 215 8.0 19.3 0.00 0.00 0.00 37 1006.9
20260504201514 23 213 8.0 0.0 0.00 0.00 0.00 38 1006.9
20260504201345 23 207 8.0 20.9 0.00 0.00 0.00 36 1006.9
20260504200339 23 174 4.8 17.7 0.00 0.00 0.00 36 1007.1
20260504200015 23 198 6.4 0.0 0.00 0.00 0.00 36 1007.0
20260504195352 23 278 8.0 16.1 0.00 0.00 0.00 37 1007.2
20260504194556 23 212 8.0 0.0 0.00 0.00 0.00 37 1007.2
20260504194349 23 191 9.7 17.7 0.00 0.00 0.00 37 1007.2
20260504193402 23 191 11.3 24.1 0.00 0.00 0.00 37 1007.3
20260504193032 23 175 8.0 0.0 0.00 0.00 0.00 36 1007.3
20260504192358 23 168 8.0 17.7 0.00 0.00 0.00 36 1007.6
20260504191545 22 196 6.4 0.0 0.00 0.00 0.00 37 1007.6
20260504191356 22 196 4.8 14.5 0.00 0.00 0.00 38 1007.6
20260504190350 22 170 4.8 22.5 0.00 0.00 0.00 38 1007.8
20260504190050 22 246 4.8 0.0 0.00 0.00 0.00 38 1007.8
20260504185343 22 191 4.8 14.5 0.00 0.00 0.00 38 1008.1
20260504184507 22 189 4.8 0.0 0.00 0.00 0.00 38 1008.0
20260504184341 22 308 4.8 17.7 0.00 0.00 0.00 37 1008.0
20260504183404 22 209 3.2 14.5 0.00 0.00 0.00 37 1008.3
20260504183058 21 229 6.4 0.0 0.00 0.00 0.00 37 1008.3
20260504182408 22 151 8.0 20.9 0.00 0.00 0.00 38 1008.5
20260504181504 21 206 6.4 0.0 0.00 0.00 0.00 38 1008.5
20260504181348 22 304 3.2 20.9 0.00 0.00 0.00 38 1008.5
20260504180343 22 187 11.3 19.3 0.00 0.00 0.00 39 1008.8
20260504180103 21 211 6.4 0.0 0.00 0.00 0.00 37 1008.8
20260504175406 22 175 9.7 16.1 0.00 0.00 0.00 37 1008.9
20260504174509 21 152 4.8 0.0 0.00 0.00 0.00 39 1008.8
20260504174405 21 175 4.8 11.3 0.00 0.00 0.00 38 1008.9
20260504173402 21 208 8.0 17.7 0.00 0.00 0.00 37 1008.9
20260504173037 21 191 8.0 0.0 0.00 0.00 0.00 39 1008.9
20260504172342 21 192 4.8 11.3 0.00 0.00 0.00 41 1009.2
20260504171520 20 282 6.4 0.0 0.00 0.00 0.00 43 1009.2
20260504171341 20 194 6.4 22.5 0.00 0.00 0.00 42 1009.2
20260504170339 20 304 4.8 16.1 0.00 0.00 0.00 38 1009.4
20260504160346 20 179 3.2 9.7 0.00 0.00 0.00 42 1010.0
20260504150354 18 244 4.8 14.5 0.00 0.00 0.00 53 1010.4
20260504140350 16 206 9.7 19.3 0.00 0.00 0.00 63 1010.5
20260504130350 15 181 14.5 20.9 0.00 0.00 0.00 65 1011.1
20260504110347 8 186 3.2 4.8 0.00 0.00 0.00 87 1011.7
20260504100358 7 188 1.6 4.8 0.00 0.00 0.00 83 1011.9
20260504081555 8 182 3.2 0.0 0.00 0.00 0.00 73 1011.8
20260504081354 8 182 3.2 8.0 0.00 0.00 0.00 73 1011.8
20260504080350 8 189 4.8 8.0 0.00 0.00 0.00 72 1011.7
20260504070406 8 184 4.8 8.0 0.00 0.00 0.00 71 1011.4
20260504050350 8 187 3.2 8.0 0.00 0.00 0.00 68 1011.4
20260504045344 8 186 3.2 4.8 0.00 0.00 0.00 68 1011.3
20260504044527 7 184 3.2 0.0 0.00 0.00 0.00 68 1011.4
20260504044343 8 184 3.2 4.8 0.00 0.00 0.00 68 1011.3
20260504043337 8 185 1.6 4.8 0.00 0.00 0.00 68 1011.1
20260504043015 7 185 3.2 0.0 0.00 0.00 0.00 68 1011.2
20260504042349 8 184 3.2 6.4 0.00 0.00 0.00 67 1011.0
20260504041553 8 187 3.2 0.0 0.00 0.00 0.00 66 1011.0
20260504041348 8 187 3.2 4.8 0.00 0.00 0.00 66 1011.0
20260504040343 8 187 3.2 6.4 0.00 0.00 0.00 64 1010.9
20260504040022 8 187 3.2 0.0 0.00 0.00 0.00 64 1011.0